Location: Cucq
(50.4773°N, 1.6202°E)
Time: 16:04:16
(UTC+00:00)

ADEOS II - Pass Details

Date: 07 August 2020
Orbit: 798 x 802 km, 98.5° (Epoch: 18 September)

Event Time Altitude Azimuth Distance (km) Brightness Sun altitude
Rises 00:38:02 0° 31° (NNE) 3,322 6.5 -22.6°
Reaches altitude 10° 00:42:07 10° 63° (ENE) 2,383 5.0 -22.5°
Maximum altitude 00:44:02 12° 84° (E) 2,248 4.6 -22.5°
Drops below altitude 10° 00:45:57 10° 106° (ESE) 2,376 4.5 -22.4°
Enters shadow 00:47:28 - 120° (ESE) 2,642 4.6 -22.4°
